Time,TemperatureF,DewpointF,PressureIn,WindDirection,WindDirectionDegrees,WindSpeedMPH,WindSpeedGustMPH,Humidity,HourlyPrecipIn,Conditions,Clouds,dailyrainin,SoftwareType,DateUTC
2015-03-01 00:03:00,21.8,16.0,30.56,ENE,69,0.0,0.0,78,0.00,,,0.00,Wunderground v.1.15,2015-03-01 05:03:00,
2015-03-01 00:08:00,21.8,16.3,30.55,ENE,69,0.0,0.0,79,0.00,,,0.00,Wunderground v.1.15,2015-03-01 05:08:00,
2015-03-01 00:14:00,21.8,16.3,30.55,ENE,69,0.0,0.0,79,0.00,,,0.00,Wunderground v.1.15,2015-03-01 05:14:00,
2015-03-01 00:20:00,21.8,16.6,30.55,ENE,71,0.0,0.0,80,0.00,,,0.00,Wunderground v.1.15,2015-03-01 05:20:00,
2015-03-01 00:25:00,21.8,16.6,30.54,ENE,71,0.0,0.0,80,0.00,,,0.00,Wunderground v.1.15,2015-03-01 05:25:00,
2015-03-01 00:31:00,21.6,16.7,30.54,ENE,71,0.0,0.0,81,0.00,,,0.00,Wunderground v.1.15,2015-03-01 05:31:00,
2015-03-01 00:37:00,21.6,16.7,30.53,ENE,71,0.0,0.0,81,0.00,,,0.00,Wunderground v.1.15,2015-03-01 05:37:00,
2015-03-01 00:42:00,21.4,16.8,30.53,ENE,71,0.0,0.0,82,0.00,,,0.00,Wunderground v.1.15,2015-03-01 05:42:00,
2015-03-01 00:48:00,21.4,16.8,30.53,ENE,71,0.0,0.0,82,0.00,,,0.00,Wunderground v.1.15,2015-03-01 05:48:00,
2015-03-01 00:53:00,21.4,17.0,30.52,ENE,71,0.0,0.0,83,0.00,,,0.00,Wunderground v.1.15,2015-03-01 05:53:00,
2015-03-01 00:59:00,21.4,17.0,30.52,ENE,71,0.0,0.0,83,0.00,,,0.00,Wunderground v.1.15,2015-03-01 05:59:00,
2015-03-01 01:06:00,21.4,17.3,30.52,ENE,71,0.0,0.0,84,0.00,,,0.00,Wunderground v.1.15,2015-03-01 06:06:00,
2015-03-01 01:12:00,21.4,17.3,30.52,ENE,71,0.0,0.0,84,0.00,,,0.00,Wunderground v.1.15,2015-03-01 06:12:00,
2015-03-01 01:17:00,21.4,17.3,30.52,ENE,71,0.0,0.0,84,0.00,,,0.00,Wunderground v.1.15,2015-03-01 06:17:00,
2015-03-01 01:23:00,21.4,17.6,30.51,ENE,71,0.0,0.0,85,0.00,,,0.00,Wunderground v.1.15,2015-03-01 06:23:00,
2015-03-01 01:28:00,21.6,17.8,30.51,ENE,71,0.0,0.0,85,0.00,,,0.00,Wunderground v.1.15,2015-03-01 06:28:00,
2015-03-01 01:34:00,21.6,17.8,30.51,ENE,71,0.0,0.0,85,0.00,,,0.00,Wunderground v.1.15,2015-03-01 06:34:00,
2015-03-01 01:40:00,21.8,18.3,30.50,ENE,71,0.0,0.0,86,0.00,,,0.00,Wunderground v.1.15,2015-03-01 06:40:00,
2015-03-01 01:45:00,21.8,18.3,30.50,SE,130,0.0,1.0,86,0.00,,,0.00,Wunderground v.1.15,2015-03-01 06:45:00,
2015-03-01 01:51:00,21.9,18.4,30.49,SSE,157,0.0,0.0,86,0.00,,,0.00,Wunderground v.1.15,2015-03-01 06:51:00,
2015-03-01 01:57:00,22.1,18.8,30.49,SE,143,3.0,3.0,87,0.00,,,0.00,Wunderground v.1.15,2015-03-01 06:57:00,
2015-03-01 02:02:00,22.1,18.8,30.49,SSE,148,0.0,2.0,87,0.00,,,0.00,Wunderground v.1.15,2015-03-01 07:02:00,
2015-03-01 02:07:00,22.2,18.9,30.49,SSE,148,0.0,2.0,87,0.00,,,0.00,Wunderground v.1.15,2015-03-01 07:07:00,
2015-03-01 02:12:00,22.2,19.2,30.49,SSE,156,0.0,2.0,88,0.00,,,0.00,Wunderground v.1.15,2015-03-01 07:12:00,
2015-03-01 02:17:00,22.4,19.4,30.49,ESE,118,1.0,4.0,88,0.00,,,0.00,Wunderground v.1.15,2015-03-01 07:17:00,
2015-03-01 02:22:00,22.4,19.4,30.47,ESE,123,2.0,2.0,88,0.00,,,0.00,Wunderground v.1.15,2015-03-01 07:22:00,
2015-03-01 02:27:00,22.5,19.5,30.47,SSE,160,2.0,6.0,88,0.00,,,0.00,Wunderground v.1.15,2015-03-01 07:27:00,
2015-03-01 02:32:00,22.5,19.5,30.47,SSE,160,0.0,1.0,88,0.00,,,0.00,Wunderground v.1.15,2015-03-01 07:32:00,
2015-03-01 02:37:00,22.7,19.7,30.46,SE,142,2.0,5.0,88,0.00,,,0.00,Wunderground v.1.15,2015-03-01 07:37:00,
2015-03-01 02:42:00,22.7,19.7,30.46,SSE,159,2.0,2.0,88,0.00,,,0.00,Wunderground v.1.15,2015-03-01 07:42:00,
2015-03-01 02:47:00,22.7,19.9,30.46,SSE,148,0.0,5.0,89,0.00,,,0.00,Wunderground v.1.15,2015-03-01 07:47:00,
2015-03-01 02:52:00,22.9,20.1,30.45,SSE,153,1.0,5.0,89,0.00,,,0.00,Wunderground v.1.15,2015-03-01 07:52:00,
2015-03-01 02:57:00,23.0,20.2,30.45,SSE,152,1.0,5.0,89,0.00,,,0.00,Wunderground v.1.15,2015-03-01 07:57:00,
2015-03-01 03:02:00,23.0,20.2,30.45,SSE,155,3.0,4.0,89,0.00,,,0.00,Wunderground v.1.15,2015-03-01 08:02:00,
2015-03-01 03:07:00,23.2,20.4,30.44,SSE,157,0.0,5.0,89,0.00,,,0.00,Wunderground v.1.15,2015-03-01 08:07:00,
2015-03-01 03:12:00,23.3,20.8,30.44,SE,133,0.0,4.0,90,0.00,,,0.00,Wunderground v.1.15,2015-03-01 08:12:00,
2015-03-01 03:17:00,23.6,21.1,30.44,SE,140,1.0,4.0,90,0.00,,,0.00,Wunderground v.1.15,2015-03-01 08:17:00,
2015-03-01 03:22:00,23.8,21.3,30.44,South,172,1.0,2.0,90,0.00,,,0.00,Wunderground v.1.15,2015-03-01 08:22:00,
2015-03-01 03:27:00,23.8,21.3,30.44,SE,143,0.0,4.0,90,0.00,,,0.00,Wunderground v.1.15,2015-03-01 08:27:00,
2015-03-01 03:32:00,23.9,21.4,30.44,SSE,152,0.0,3.0,90,0.00,,,0.00,Wunderground v.1.15,2015-03-01 08:32:00,
2015-03-01 03:37:00,24.1,21.6,30.42,SSE,152,0.0,3.0,90,0.00,,,0.00,Wunderground v.1.15,2015-03-01 08:37:00,
2015-03-01 03:42:00,24.1,21.6,30.42,SSE,156,2.0,2.0,90,0.00,,,0.00,Wunderground v.1.15,2015-03-01 08:42:00,
2015-03-01 03:47:00,24.2,21.7,30.42,SSE,156,0.0,2.0,90,0.00,,,0.00,Wunderground v.1.15,2015-03-01 08:47:00,
2015-03-01 03:52:00,24.2,22.0,30.42,SSE,156,0.0,0.0,91,0.00,,,0.00,Wunderground v.1.15,2015-03-01 08:52:00,
2015-03-01 03:57:00,24.4,22.2,30.42,SSE,155,0.0,2.0,91,0.00,,,0.00,Wunderground v.1.15,2015-03-01 08:57:00,
2015-03-01 04:02:00,24.4,22.2,30.42,SSE,155,0.0,0.0,91,0.00,,,0.00,Wunderground v.1.15,2015-03-01 09:02:00,
2015-03-01 04:07:00,24.5,22.2,30.42,SSE,155,0.0,1.0,91,0.00,,,0.00,Wunderground v.1.15,2015-03-01 09:07:00,
2015-03-01 04:12:00,24.7,22.4,30.42,SSE,155,0.0,0.0,91,0.00,,,0.00,Wunderground v.1.15,2015-03-01 09:12:00,
2015-03-01 04:17:00,24.7,22.4,30.42,SSE,155,0.0,1.0,91,0.00,,,0.00,Wunderground v.1.15,2015-03-01 09:17:00,
2015-03-01 04:22:00,24.8,22.5,30.42,SSE,155,0.0,1.0,91,0.00,,,0.00,Wunderground v.1.15,2015-03-01 09:22:00,
2015-03-01 04:27:00,25.0,22.7,30.42,SSE,155,0.0,1.0,91,0.00,,,0.00,Wunderground v.1.15,2015-03-01 09:27:00,
2015-03-01 04:32:00,25.0,23.0,30.42,SSE,155,0.0,0.0,92,0.00,,,0.00,Wunderground v.1.15,2015-03-01 09:32:00,
2015-03-01 04:37:00,25.1,23.1,30.42,SSE,155,0.0,1.0,92,0.00,,,0.00,Wunderground v.1.15,2015-03-01 09:37:00,
2015-03-01 04:42:00,25.3,23.3,30.42,SSE,155,0.0,0.0,92,0.00,,,0.00,Wunderground v.1.15,2015-03-01 09:42:00,
2015-03-01 04:47:00,25.3,23.3,30.42,SSE,155,0.0,0.0,92,0.00,,,0.00,Wunderground v.1.15,2015-03-01 09:47:00,
2015-03-01 04:52:00,25.4,23.4,30.43,SSE,155,0.0,0.0,92,0.00,,,0.00,Wunderground v.1.15,2015-03-01 09:52:00,
2015-03-01 04:57:00,25.4,23.4,30.43,SSE,155,0.0,0.0,92,0.00,,,0.00,Wunderground v.1.15,2015-03-01 09:57:00,
2015-03-01 05:02:00,25.4,23.4,30.43,SSE,155,0.0,0.0,92,0.00,,,0.00,Wunderground v.1.15,2015-03-01 10:02:00,
2015-03-01 05:07:00,25.6,23.6,30.42,SSE,155,0.0,0.0,92,0.00,,,0.00,Wunderground v.1.15,2015-03-01 10:07:00,
2015-03-01 05:12:00,25.6,23.6,30.42,SSE,155,0.0,0.0,92,0.00,,,0.00,Wunderground v.1.15,2015-03-01 10:12:00,
2015-03-01 05:17:00,25.6,23.6,30.42,SSE,155,0.0,0.0,92,0.00,,,0.00,Wunderground v.1.15,2015-03-01 10:17:00,
2015-03-01 05:23:00,25.7,23.7,30.43,SSE,155,0.0,0.0,92,0.00,,,0.00,Wunderground v.1.15,2015-03-01 10:23:00,
2015-03-01 05:27:00,25.7,23.7,30.43,SSE,155,0.0,0.0,92,0.00,,,0.00,Wunderground v.1.15,2015-03-01 10:27:00,
2015-03-01 05:32:00,25.7,23.7,30.43,SSE,155,0.0,0.0,92,0.00,,,0.00,Wunderground v.1.15,2015-03-01 10:32:00,
2015-03-01 05:37:00,25.6,23.6,30.43,SSE,155,0.0,1.0,92,0.00,,,0.00,Wunderground v.1.15,2015-03-01 10:37:00,
2015-03-01 05:43:00,25.6,23.6,30.43,SSE,155,0.0,0.0,92,0.00,,,0.00,Wunderground v.1.15,2015-03-01 10:43:00,
2015-03-01 05:48:00,25.4,23.4,30.43,SSE,155,0.0,2.0,92,0.00,,,0.00,Wunderground v.1.15,2015-03-01 10:48:00,
2015-03-01 05:53:00,25.4,23.4,30.43,SSE,155,0.0,0.0,92,0.00,,,0.00,Wunderground v.1.15,2015-03-01 10:53:00,
2015-03-01 05:58:00,25.4,23.4,30.43,SSE,155,0.0,0.0,92,0.00,,,0.00,Wunderground v.1.15,2015-03-01 10:58:00,
2015-03-01 06:03:00,25.3,23.3,30.43,SSE,155,0.0,0.0,92,0.00,,,0.00,Wunderground v.1.15,2015-03-01 11:03:00,
2015-03-01 06:08:00,25.3,23.3,30.43,SSE,155,0.0,0.0,92,0.00,,,0.00,Wunderground v.1.15,2015-03-01 11:08:00,
2015-03-01 06:13:00,25.3,23.3,30.43,SSE,155,0.0,0.0,92,0.00,,,0.00,Wunderground v.1.15,2015-03-01 11:13:00,
2015-03-01 06:18:00,25.4,23.4,30.43,SSE,155,0.0,0.0,92,0.00,,,0.00,Wunderground v.1.15,2015-03-01 11:18:00,
2015-03-01 06:23:00,25.4,23.4,30.43,SSE,155,0.0,0.0,92,0.00,,,0.00,Wunderground v.1.15,2015-03-01 11:23:00,
2015-03-01 06:28:00,25.4,23.4,30.43,SSE,155,0.0,0.0,92,0.00,,,0.00,Wunderground v.1.15,2015-03-01 11:28:00,
2015-03-01 06:33:00,25.4,23.4,30.43,SSE,155,0.0,0.0,92,0.00,,,0.00,Wunderground v.1.15,2015-03-01 11:33:00,
2015-03-01 06:38:00,25.4,23.4,30.43,SSE,155,0.0,0.0,92,0.00,,,0.00,Wunderground v.1.15,2015-03-01 11:38:00,
2015-03-01 06:43:00,25.4,23.4,30.43,SSE,155,0.0,0.0,92,0.00,,,0.00,Wunderground v.1.15,2015-03-01 11:43:00,
2015-03-01 06:48:00,25.4,23.4,30.43,SSE,155,0.0,0.0,92,0.00,,,0.00,Wunderground v.1.15,2015-03-01 11:48:00,
2015-03-01 06:53:00,25.4,23.4,30.43,SSE,155,0.0,0.0,92,0.00,,,0.00,Wunderground v.1.15,2015-03-01 11:53:00,
2015-03-01 06:58:00,25.6,23.6,30.43,SSE,155,0.0,0.0,92,0.00,,,0.00,Wunderground v.1.15,2015-03-01 11:58:00,
2015-03-01 07:03:00,25.6,23.6,30.43,SSE,155,0.0,0.0,92,0.00,,,0.00,Wunderground v.1.15,2015-03-01 12:03:00,
2015-03-01 07:08:00,25.6,23.6,30.42,SSE,155,0.0,0.0,92,0.00,,,0.00,Wunderground v.1.15,2015-03-01 12:08:00,
2015-03-01 07:13:00,25.6,23.6,30.42,SSE,155,0.0,0.0,92,0.00,,,0.00,Wunderground v.1.15,2015-03-01 12:13:00,
2015-03-01 07:18:00,25.7,24.0,30.42,SSE,155,0.0,0.0,93,0.00,,,0.00,Wunderground v.1.15,2015-03-01 12:18:00,
2015-03-01 07:23:00,25.7,24.0,30.42,SSE,155,0.0,0.0,93,0.00,,,0.00,Wunderground v.1.15,2015-03-01 12:23:00,
2015-03-01 07:28:00,25.7,24.0,30.42,SSE,155,0.0,0.0,93,0.00,,,0.00,Wunderground v.1.15,2015-03-01 12:28:00,
2015-03-01 07:33:00,25.8,24.1,30.42,SSE,155,0.0,0.0,93,0.00,,,0.00,Wunderground v.1.15,2015-03-01 12:33:00,
2015-03-01 07:38:00,25.8,24.1,30.42,SSE,155,0.0,0.0,93,0.00,,,0.00,Wunderground v.1.15,2015-03-01 12:38:00,
2015-03-01 07:43:00,26.0,24.3,30.42,SSE,155,0.0,0.0,93,0.00,,,0.00,Wunderground v.1.15,2015-03-01 12:43:00,
2015-03-01 07:48:00,26.0,24.3,30.42,SSE,155,0.0,0.0,93,0.00,,,0.00,Wunderground v.1.15,2015-03-01 12:48:00,
2015-03-01 07:53:00,26.1,24.4,30.42,SSE,155,0.0,0.0,93,0.00,,,0.00,Wunderground v.1.15,2015-03-01 12:53:00,
2015-03-01 07:58:00,26.1,24.4,30.42,SSE,155,0.0,0.0,93,0.00,,,0.00,Wunderground v.1.15,2015-03-01 12:58:00,
2015-03-01 08:03:00,26.3,24.6,30.42,SSE,155,0.0,0.0,93,0.00,,,0.00,Wunderground v.1.15,2015-03-01 13:03:00,
2015-03-01 08:08:00,26.3,24.6,30.41,SSE,155,0.0,0.0,93,0.00,,,0.00,Wunderground v.1.15,2015-03-01 13:08:00,
2015-03-01 08:13:00,26.4,24.7,30.41,SSE,155,0.0,0.0,93,0.00,,,0.00,Wunderground v.1.15,2015-03-01 13:13:00,
2015-03-01 08:18:00,26.6,24.8,30.41,SSE,155,0.0,0.0,93,0.00,,,0.00,Wunderground v.1.15,2015-03-01 13:18:00,
2015-03-01 08:23:00,26.7,24.9,30.41,SSE,155,0.0,0.0,93,0.00,,,0.00,Wunderground v.1.15,2015-03-01 13:23:00,
2015-03-01 08:28:00,26.7,24.9,30.41,SSE,155,0.0,0.0,93,0.00,,,0.00,Wunderground v.1.15,2015-03-01 13:28:00,
2015-03-01 08:33:00,26.9,25.1,30.41,SSE,155,0.0,0.0,93,0.00,,,0.00,Wunderground v.1.15,2015-03-01 13:33:00,
2015-03-01 08:38:00,27.0,25.2,30.42,SSE,155,0.0,0.0,93,0.00,,,0.00,Wunderground v.1.15,2015-03-01 13:38:00,
2015-03-01 08:43:00,27.2,25.4,30.42,SSE,155,0.0,0.0,93,0.00,,,0.00,Wunderground v.1.15,2015-03-01 13:43:00,
2015-03-01 08:48:00,27.3,25.5,30.42,SSE,155,0.0,0.0,93,0.00,,,0.00,Wunderground v.1.15,2015-03-01 13:48:00,
2015-03-01 08:53:00,27.5,25.7,30.42,SSE,155,0.0,0.0,93,0.00,,,0.00,Wunderground v.1.15,2015-03-01 13:53:00,
2015-03-01 08:58:00,27.6,25.8,30.42,SSE,155,0.0,0.0,93,0.00,,,0.00,Wunderground v.1.15,2015-03-01 13:58:00,
2015-03-01 09:03:00,27.8,26.0,30.42,SSE,155,0.0,0.0,93,0.00,,,0.00,Wunderground v.1.15,2015-03-01 14:03:00,
2015-03-01 09:08:00,28.1,26.3,30.41,SSE,155,0.0,0.0,93,0.00,,,0.00,Wunderground v.1.15,2015-03-01 14:08:00,
2015-03-01 09:13:00,28.2,26.4,30.41,SSE,155,0.0,0.0,93,0.00,,,0.00,Wunderground v.1.15,2015-03-01 14:13:00,
2015-03-01 09:18:00,28.4,26.6,30.41,SSE,155,0.0,0.0,93,0.00,,,0.00,Wunderground v.1.15,2015-03-01 14:18:00,
2015-03-01 09:23:00,28.5,26.7,30.42,SSE,155,0.0,0.0,93,0.00,,,0.00,Wunderground v.1.15,2015-03-01 14:23:00,
2015-03-01 09:28:00,28.7,26.9,30.42,SSE,155,0.0,0.0,93,0.00,,,0.00,Wunderground v.1.15,2015-03-01 14:28:00,
2015-03-01 09:33:00,28.8,27.0,30.42,SSE,155,0.0,0.0,93,0.00,,,0.00,Wunderground v.1.15,2015-03-01 14:33:00,
2015-03-01 09:38:00,29.1,27.3,30.41,SSE,155,0.0,0.0,93,0.00,,,0.00,Wunderground v.1.15,2015-03-01 14:38:00,
2015-03-01 09:43:00,29.4,27.6,30.41,SSE,155,0.0,0.0,93,0.00,,,0.00,Wunderground v.1.15,2015-03-01 14:43:00,
2015-03-01 09:48:00,29.5,27.7,30.41,SSE,155,1.0,1.0,93,0.00,,,0.00,Wunderground v.1.15,2015-03-01 14:48:00,
2015-03-01 09:53:00,29.5,27.7,30.40,SSE,155,0.0,0.0,93,0.00,,,0.00,Wunderground v.1.15,2015-03-01 14:53:00,
2015-03-01 09:58:00,29.8,28.0,30.40,SSE,155,0.0,0.0,93,0.00,,,0.00,Wunderground v.1.15,2015-03-01 14:58:00,
2015-03-01 10:03:00,30.3,28.5,30.40,SSE,155,0.0,0.0,93,0.00,,,0.00,Wunderground v.1.15,2015-03-01 15:03:00,
2015-03-01 10:08:00,30.6,28.8,30.40,SSE,155,0.0,0.0,93,0.00,,,0.00,Wunderground v.1.15,2015-03-01 15:08:00,
2015-03-01 10:13:00,30.6,28.6,30.40,SSE,155,0.0,0.0,92,0.00,,,0.00,Wunderground v.1.15,2015-03-01 15:13:00,
2015-03-01 10:18:00,30.7,28.7,30.40,SSE,155,0.0,0.0,92,0.00,,,0.00,Wunderground v.1.15,2015-03-01 15:18:00,
2015-03-01 10:23:00,30.7,28.7,30.39,SSE,155,0.0,0.0,92,0.00,,,0.00,Wunderground v.1.15,2015-03-01 15:23:00,
2015-03-01 10:28:00,30.9,28.6,30.39,SSE,155,0.0,0.0,91,0.00,,,0.00,Wunderground v.1.15,2015-03-01 15:28:00,
2015-03-01 10:33:00,31.0,28.7,30.39,SSE,155,0.0,0.0,91,0.00,,,0.00,Wunderground v.1.15,2015-03-01 15:33:00,
2015-03-01 10:38:00,31.3,29.0,30.38,SSE,155,0.0,0.0,91,0.00,,,0.00,Wunderground v.1.15,2015-03-01 15:38:00,
2015-03-01 10:43:00,31.3,28.7,30.38,SSE,155,0.0,2.0,90,0.00,,,0.00,Wunderground v.1.15,2015-03-01 15:43:00,
2015-03-01 10:48:00,31.2,28.6,30.38,SSE,155,1.0,3.0,90,0.00,,,0.00,Wunderground v.1.15,2015-03-01 15:48:00,
2015-03-01 10:53:00,31.0,28.1,30.38,SSE,155,2.0,2.0,89,0.00,,,0.00,Wunderground v.1.15,2015-03-01 15:53:00,
2015-03-01 10:59:00,31.0,28.4,30.38,SSE,155,0.0,3.0,90,0.00,,,0.00,Wunderground v.1.15,2015-03-01 15:59:00,
2015-03-01 11:04:00,31.0,28.4,30.38,SSE,155,0.0,0.0,90,0.00,,,0.00,Wunderground v.1.15,2015-03-01 16:04:00,
2015-03-01 11:09:00,31.2,28.6,30.37,SSE,155,0.0,2.0,90,0.00,,,0.00,Wunderground v.1.15,2015-03-01 16:09:00,
2015-03-01 11:14:00,31.3,28.7,30.37,SSE,155,0.0,0.0,90,0.00,,,0.01,Wunderground v.1.15,2015-03-01 16:14:00,
2015-03-01 11:19:00,31.5,28.9,30.37,SSE,155,0.0,1.0,90,0.00,,,0.01,Wunderground v.1.15,2015-03-01 16:19:00,
2015-03-01 11:24:00,31.5,28.9,30.37,SSE,155,0.0,0.0,90,0.00,,,0.01,Wunderground v.1.15,2015-03-01 16:24:00,
2015-03-01 11:29:00,31.8,29.2,30.37,SSE,155,0.0,0.0,90,0.00,,,0.01,Wunderground v.1.15,2015-03-01 16:29:00,
2015-03-01 11:34:00,31.8,28.9,30.37,SSE,155,0.0,0.0,89,0.00,,,0.02,Wunderground v.1.15,2015-03-01 16:34:00,
2015-03-01 11:39:00,31.8,28.9,30.36,SSE,155,0.0,0.0,89,0.00,,,0.02,Wunderground v.1.15,2015-03-01 16:39:00,
2015-03-01 11:44:00,31.9,29.0,30.36,SSE,155,0.0,0.0,89,0.00,,,0.02,Wunderground v.1.15,2015-03-01 16:44:00,
2015-03-01 11:49:00,32.2,29.3,30.36,SSE,155,0.0,0.0,89,0.00,,,0.02,Wunderground v.1.15,2015-03-01 16:49:00,
2015-03-01 11:54:00,32.4,29.2,30.36,SSE,155,0.0,2.0,88,0.00,,,0.02,Wunderground v.1.15,2015-03-01 16:54:00,
2015-03-01 11:59:00,32.1,28.9,30.36,SSE,155,0.0,2.0,88,0.00,,,0.03,Wunderground v.1.15,2015-03-01 16:59:00,
2015-03-01 12:04:00,31.9,28.8,30.36,SSE,155,1.0,1.0,88,0.00,,,0.03,Wunderground v.1.15,2015-03-01 17:04:00,
2015-03-01 12:09:00,31.6,28.5,30.36,SSE,161,0.0,3.0,88,0.00,,,0.03,Wunderground v.1.15,2015-03-01 17:09:00,
2015-03-01 12:14:00,31.5,28.4,30.36,SSE,161,0.0,0.0,88,0.00,,,0.03,Wunderground v.1.15,2015-03-01 17:14:00,
2015-03-01 12:19:00,31.5,28.4,30.36,SSE,161,0.0,0.0,88,0.00,,,0.03,Wunderground v.1.15,2015-03-01 17:19:00,